Location: Latina
(41.4670°N, 12.8670°E)
Time: 17:33:59
(UTC+02:00)

ISS - Pass Details

Date: 16 May 2021
Orbit: 417 x 422 km, 51.6° (Epoch: 18 June)

Event Time Altitude Azimuth Distance (km) Brightness Sun altitude
Rises 01:15:18 0° 302° (WNW) 2,370 0.4 -29.4°
Reaches altitude 10° 01:18:06 10° 327° (NNW) 1,506 -0.3 -29.4°
Maximum altitude 01:20:07 15° 4° (N) 1,247 -0.5 -29.3°
Drops below altitude 10° 01:22:08 10° 41° (NE) 1,508 -0.3 -29.3°
Sets 01:24:57 0° 66° (ENE) 2,373 0.4 -29.3°
